Wind_Speed
19 19 21 22 24 25 26 27 28 30 31 30 26 22 18 15 15 14 13 12 11 12 12 12 13 14 14 15 15 16 17 18 18 17 15 13 11 9 7 6 5 4 4 5 6 7 8 9 10 9 9 8 8 7 7 6 6 5 5 5 5 5 5 5 5 6 6 6 5 5 5 5 6 6 6 6 6 6 7 7 7 7 7 8 8
19 20 21 22 23 24 25 27 28 29 30 29 26 22 18 15 14 14 13 12 11 11 11 12 12 13 13 14 14 15 16 17 18 18 16 14 12 10 8 7 6 5 5 6 7 7 8 9 9 8 8 8 7 7 7 6 6 5 4 4 4 4 4 5 5 5 5 5 5 5 5 6 6 6 6 6 6 7 7 8 8 8 9 9 10
20 21 21 22 22 23 24 26 27 28 29 29 26 22 18 16 14 13 12 11 11 10 11 11 12 13 13 13 13 14 15 16 18 18 17 15 13 11 10 8 7 7 7 7 8 8 9 9 8 8 7 8 8 8 8 7 6 6 5 4 4 4 4 5 5 5 5 4 5 5 6 6 7 6 6 7 7 8 8 9 9 10 10 11 11
20 21 22 22 22 22 24 25 26 28 29 29 26 21 18 16 15 13 12 11 10 10 11 11 11 12 12 13 13 13 14 16 17 18 18 16 14 12 11 9 8 8 8 8 8 9 9 9 8 8 7 8 9 9 9 8 7 7 6 5 5 5 5 5 5 5 4 5 5 6 6 6 7 7 7 8 8 9 9 10 11 11 12 12 13
21 22 22 21 22 22 23 25 26 27 28 28 26 21 18 16 15 14 12 11 10 10 10 11 11 12 12 12 12 13 14 16 17 18 18 17 15 13 11 11 10 9 9 9 9 10 10 10 9 8 7 8 9 9 9 8 8 7 6 6 6 6 5 5 5 5 5 6 6 6 7 7 8 8 9 9 9 10 11 12 12 13 13 13 14
23 23 22 22 22 22 23 25 25 26 27 27 25 21 17 16 15 14 12 11 10 10 10 11 11 12 12 12 12 13 14 15 17 18 17 17 15 13 12 11 11 10 10 10 10 10 10 10 9 7 7 8 8 9 9 8 7 7 6 6 6 6 6 6 6 6 6 7 7 7 7 8 8 9 10 10 10 11 12 13 13 14 14 15 15
24 23 23 22 22 22 23 25 25 25 26 27 26 21 17 16 15 14 12 11 10 10 10 11 11 12 12 12 12 12 13 15 16 17 17 16 15 14 13 11 11 11 10 10 10 10 10 10 9 7 7 8 8 8 8 7 7 7 7 7 7 7 7 7 7 7 7 7 8 8 8 9 9 10 11 11 11 12 12 13 14 15 16 16 17
24 23 23 22 22 22 23 25 25 25 25 26 25 21 17 16 15 14 12 10 10 11 11 11 11 12 12 12 12 12 13 15 16 17 16 16 16 15 13 12 11 11 10 10 10 10 10 10 9 7 7 7 7 7 7 7 7 8 8 8 8 8 8 8 8 8 8 8 8 9 9 9 10 11 11 12 12 12 13 14 15 16 16 17 17
23 23 23 23 22 22 23 25 25 25 25 26 25 21 17 16 15 14 12 10 10 11 11 11 12 12 12 12 11 12 13 15 16 16 16 16 16 15 14 12 11 10 10 10 10 10 10 9 8 7 7 7 6 6 7 7 8 9 9 9 9 8 8 8 8 8 8 9 9 9 10 10 11 11 12 12 12 13 14 15 16 16 17 17 17
24 24 24 23 23 23 24 25 25 25 25 26 25 21 17 16 15 14 11 10 11 12 12 11 12 12 12 11 11 12 13 15 16 16 16 16 16 15 15 13 12 10 10 9 9 9 9 9 8 7 7 6 5 6 7 8 9 9 9 9 9 8 8 9 9 9 9 9 10 10 10 11 12 11 12 12 13 13 14 15 16 17 17 17 17
25 25 25 25 24 24 25 26 26 26 26 25 24 20 17 16 15 14 11 10 11 12 12 12 12 12 11 11 11 12 13 15 15 16 16 16 16 16 15 14 12 10 9 9 8 8 8 8 7 6 5 5 5 6 7 8 9 9 9 9 9 8 8 8 8 9 9 9 10 10 10 12 12 11 12 13 13 14 14 16 16 17 17 18 18
26 26 26 26 26 26 26 27 27 27 26 25 23 20 17 16 15 13 11 11 11 13 13 12 12 12 11 11 11 12 13 14 15 15 16 17 17 17 16 14 12 10 9 8 8 7 7 7 6 5 4 4 5 6 8 8 8 8 9 9 9 8 8 8 8 9 9 9 9 10 10 11 12 12 13 13 14 15 15 16 17 17 18 18 19
26 26 27 28 28 27 27 28 28 27 26 25 22 20 18 17 16 13 11 11 12 13 13 13 13 12 11 11 12 13 13 13 14 15 16 16 17 17 15 14 12 10 9 8 8 7 6 5 4 4 3 4 5 7 8 9 9 8 9 9 9 8 8 8 8 8 9 9 9 10 11 12 13 13 13 14 15 15 16 17 17 18 18 19 19
27 27 28 29 29 28 28 29 28 27 26 24 21 19 18 17 16 13 11 11 12 13 13 14 14 13 12 12 13 12 12 12 13 15 16 16 16 16 15 13 12 10 8 7 7 6 5 4 3 3 3 4 6 8 9 9 8 8 8 9 9 8 8 8 8 8 9 9 10 10 11 12 13 14 14 15 15 16 17 17 17 18 18 18 19
29 29 29 30 31 30 30 29 28 27 25 23 20 19 18 17 15 13 12 12 12 13 14 14 14 13 12 12 13 12 11 12 13 15 16 16 15 14 14 13 11 10 9 7 7 6 5 4 3 2 2 4 6 8 9 8 8 8 8 8 9 8 7 7 7 8 8 9 10 11 11 12 13 13 14 14 15 16 17 17 17 17 18 18 18
31 30 31 31 32 31 30 29 27 25 23 21 19 18 18 17 15 13 12 11 12 13 14 15 15 13 13 13 12 11 10 11 13 14 15 16 14 13 13 12 11 10 9 7 6 6 5 4 2 1 2 4 6 7 8 9 9 8 7 8 9 9 6 6 6 8 9 9 10 10 11 12 12 13 14 14 15 16 17 17 18 18 18 18 18
31 30 30 31 31 31 28 27 25 23 21 19 19 18 17 16 14 13 11 11 12 14 15 16 15 14 14 14 12 11 10 11 12 14 15 15 15 13 12 11 10 10 8 7 6 6 5 4 2 1 2 4 6 7 9 10 10 9 8 7 9 9 8 6 7 8 8 9 10 10 11 12 13 14 15 15 16 17 18 18 19 20 20 19 19
29 27 28 29 28 27 25 23 22 21 19 18 18 18 17 16 14 12 11 12 13 14 16 16 16 15 14 14 12 11 11 11 12 13 14 15 15 14 12 11 10 9 8 7 6 6 5 4 3 3 3 5 7 8 10 10 10 9 8 7 8 10 10 9 9 9 9 9 11 12 13 13 14 15 16 17 17 18 19 19 20 21 21 21 21
26 25 25 25 23 22 21 21 20 18 18 17 17 17 18 16 14 12 12 13 14 15 17 17 17 16 15 14 13 11 11 11 12 13 14 15 15 14 13 12 10 9 8 7 7 6 6 5 5 4 5 6 8 9 10 10 9 9 8 8 8 10 11 11 11 11 10 10 11 13 14 15 16 16 17 18 18 18 19 20 20 20 21 22 22
25 24 22 21 19 19 19 19 18 17 17 17 17 17 18 16 14 12 13 14 15 16 17 17 17 16 16 15 13 12 11 11 12 13 14 14 14 14 13 12 11 10 9 8 7 7 7 6 6 6 6 7 9 9 9 9 9 9 8 8 9 10 11 12 12 13 13 12 13 13 14 16 17 17 18 18 18 19 19 19 20 20 20 21 23
24 22 21 20 19 19 18 17 17 16 16 16 17 17 17 16 14 13 14 14 15 16 17 18 18 17 16 15 14 13 12 11 11 12 13 14 14 14 14 13 11 9 9 8 8 7 7 7 6 6 6 7 8 9 9 9 9 9 9 9 9 10 11 12 13 14 15 15 15 15 15 16 17 18 18 18 19 20 20 20 20 20 21 21 22
22 21 20 19 18 18 17 17 16 16 17 17 17 17 17 15 14 14 14 14 14 16 18 19 18 18 17 16 15 14 12 12 12 12 13 13 14 15 14 13 12 10 9 8 8 7 6 6 6 6 6 7 8 8 9 9 9 9 9 9 10 11 11 12 14 15 16 17 17 17 17 18 18 19 19 20 20 21 21 22 22 22 21 21 22
22 20 19 18 17 16 16 16 16 16 17 18 18 18 17 16 15 15 14 14 14 16 18 19 19 18 17 16 15 15 14 13 12 12 12 12 13 14 14 13 12 10 9 8 7 6 5 6 6 6 7 7 8 9 9 9 9 9 10 10 11 11 12 12 14 16 17 18 19 19 20 20 21 21 21 21 21 22 23 23 23 23 22 22 22
22 21 19 18 17 17 16 16 16 16 17 18 19 19 17 15 15 15 14 14 15 17 18 19 19 18 17 16 15 15 14 14 13 13 12 11 12 13 13 13 12 10 9 8 7 6 6 6 6 7 7 8 9 9 10 11 11 11 11 12 12 13 13 13 14 15 17 19 19 20 21 21 22 23 23 23 23 23 24 24 24 24 24 23 23
23 22 20 19 19 18 17 18 18 17 18 19 20 20 17 15 15 15 15 15 16 17 18 19 19 18 17 17 16 15 14 14 14 13 11 11 11 11 11 12 11 10 9 9 7 7 6 7 7 7 8 9 10 11 11 12 12 12 13 13 13 14 14 14 14 15 17 18 19 20 20 21 22 23 23 24 24 25 25 25 25 25 26 25 24
25 23 22 21 20 18 18 20 20 20 21 21 21 20 18 16 16 16 16 16 17 17 18 18 18 17 16 16 16 14 14 14 14 13 11 11 10 10 10 11 11 10 9 9 8 7 7 7 7 8 9 10 11 12 12 13 13 14 14 14 14 15 15 15 15 16 17 18 18 19 20 20 21 22 23 24 25 26 26 26 26 27 27 26 24
23 22 22 22 21 19 19 21 20 21 22 22 22 20 19 17 17 17 17 17 18 18 19 18 18 17 16 16 16 15 14 14 14 14 12 11 10 9 9 10 9 9 9 8 8 7 7 7 8 8 9 10 11 12 13 13 14 14 15 15 15 15 15 15 16 16 17 18 19 19 20 20 21 21 22 23 24 26 27 28 28 27 27 25 24
22 20 21 20 19 18 19 21 21 21 21 21 21 19 18 19 19 19 18 18 18 18 19 19 18 18 17 17 18 17 15 15 15 15 12 10 9 9 9 9 9 8 8 7 7 7 7 7 8 8 9 10 11 12 13 13 14 14 14 15 15 15 16 16 17 17 18 19 19 19 20 21 21 22 22 23 24 25 27 29 29 29 28 24 22
18 18 18 18 18 18 18 20 21 22 20 18 18 15 17 20 20 19 18 19 19 19 19 19 19 18 17 17 18 19 18 17 16 15 13 10 9 10 10 9 9 9 8 7 7 7 7 8 8 8 9 10 11 12 13 14 15 15 15 15 16 17 17 18 18 19 19 20 21 21 22 22 23 23 23 23 24 25 26 28 29 31 30 24 22
17 16 17 18 18 17 18 17 18 19 18 18 17 13 16 20 20 19 19 19 20 19 19 20 19 18 17 18 19 20 21 21 20 17 14 11 10 10 10 10 10 10 10 9 8 8 8 8 9 9 10 10 11 12 13 14 15 16 16 17 17 18 19 20 20 21 22 22 23 24 24 24 24 24 25 24 25 25 26 28 29 31 31 26 23
24 20 19 19 18 17 18 18 18 18 16 17 16 13 15 18 20 20 19 19 19 19 19 20 19 18 19 20 21 22 23 23 22 20 15 12 11 11 11 11 12 12 12 11 10 9 9 9 9 9 10 11 11 12 13 13 15 16 17 17 18 19 20 20 21 22 22 23 24 24 24 25 25 25 26 25 25 25 26 27 29 31 31 28 24
24 23 22 22 21 18 18 19 20 20 17 17 16 13 13 17 20 20 20 20 19 19 20 20 20 19 19 20 20 20 20 19 19 19 16 13 13 12 13 13 13 14 14 13 12 10 9 9 10 10 10 11 12 12 13 13 14 15 16 17 18 19 19 20 21 22 23 24 24 25 25 25 26 26 26 26 26 26 26 27 29 31 33 30 26
22 22 21 20 20 19 19 19 20 22 22 22 20 15 14 17 20 20 20 19 17 18 19 20 20 19 18 18 18 18 17 16 16 18 17 14 13 14 15 15 15 15 14 13 12 10 9 10 10 11 11 12 13 13 13 14 15 15 16 17 18 19 20 20 21 22 23 24 25 25 26 26 26 27 27 28 27 27 26 27 29 31 33 33 29
22 21 19 19 20 21 21 19 19 20 20 22 21 17 16 18 21 21 20 18 16 17 17 19 19 17 16 16 16 16 15 14 14 16 17 14 13 15 16 16 16 15 13 12 11 10 10 10 11 11 12 13 13 14 14 15 16 17 17 18 19 20 20 21 21 22 23 24 25 26 26 26 27 27 28 28 28 28 27 27 28 30 32 34 32
23 21 20 20 21 22 21 19 18 19 20 20 19 17 17 19 22 23 21 18 16 16 16 16 16 14 14 14 14 14 15 14 12 13 16 15 13 14 14 15 15 14 13 12 11 10 10 11 11 12 13 13 14 15 15 16 17 17 18 19 20 21 21 22 22 23 24 25 25 26 26 26 27 28 28 28 29 28 28 28 29 30 31 33 33
24 24 23 22 22 23 21 20 20 23 24 23 20 17 17 18 20 21 20 17 15 15 14 14 13 13 13 13 13 14 15 14 12 12 14 15 13 13 13 14 14 13 13 12 11 11 11 12 12 13 14 14 15 16 17 17 18 18 19 20 21 22 23 23 24 24 25 25 26 26 26 26 27 28 29 29 29 28 28 28 29 30 31 33 33
21 22 21 21 22 23 22 21 22 26 26 24 21 19 18 18 19 18 17 16 14 14 13 12 12 12 13 13 14 15 15 14 11 10 12 14 12 12 13 13 13 13 13 12 12 12 12 13 13 14 14 15 16 17 18 19 20 20 20 22 23 24 24 24 25 25 25 26 26 26 26 27 27 28 29 29 29 29 28 28 29 30 31 32 33
18 19 20 20 21 22 22 20 21 23 24 23 21 21 21 20 20 17 15 14 14 13 13 12 12 12 12 12 13 14 15 14 11 9 10 12 12 12 12 12 12 13 13 13 13 13 13 14 14 14 15 16 17 18 19 20 21 22 22 23 24 25 25 26 26 26 26 27 27 28 28 28 28 28 29 29 29 29 29 29 29 30 31 32 33
17 19 20 20 20 21 22 22 22 23 24 24 23 23 22 22 20 17 14 14 14 13 12 11 11 11 12 12 12 13 14 13 12 10 10 11 10 11 12 12 13 14 14 14 14 14 14 14 14 15 16 17 18 19 20 21 23 23 23 24 25 26 26 27 27 27 27 28 28 29 29 29 29 29 29 30 29 29 29 29 30 31 31 32 33
18 19 19 19 19 19 21 23 25 25 24 24 23 21 20 20 19 16 14 13 12 11 11 12 12 12 13 13 13 13 13 12 11 11 10 9 10 11 12 13 14 14 15 15 15 14 14 14 15 16 17 18 19 20 22 23 24 25 25 25 26 27 28 29 29 29 29 29 29 29 29 30 30 31 31 31 31 30 29 30 30 31 32 33 33
18 18 18 18 17 18 19 21 23 22 22 22 20 19 18 18 18 16 14 13 12 12 12 12 13 12 12 12 12 13 13 11 10 10 9 9 10 12 13 14 15 15 15 15 15 14 14 15 15 17 18 19 21 22 23 24 25 26 26 26 27 28 29 29 29 29 29 29 29 29 29 30 30 31 32 32 32 32 31 30 31 31 32 34 34
17 18 18 17 17 16 16 17 18 20 21 21 20 19 19 18 17 16 15 13 13 13 12 12 11 10 10 10 11 12 12 10 10 9 8 9 10 12 14 15 16 16 16 15 15 15 15 16 17 18 19 20 22 23 23 24 25 26 28 29 30 30 30 30 29 29 29 29 29 29 29 30 30 31 32 33 33 33 32 32 31 31 32 34 35
16 17 17 17 17 16 14 15 18 19 20 20 20 20 20 19 18 17 16 15 14 13 12 11 9 7 7 8 9 11 10 10 9 8 8 10 11 13 15 16 17 17 16 16 16 16 17 18 18 19 20 21 22 23 23 24 24 26 28 29 31 32 32 31 31 30 29 29 29 29 30 30 31 31 32 33 33 34 34 33 32 31 32 34 35
16 17 17 17 17 17 17 19 21 20 19 19 19 20 20 18 17 17 16 15 15 14 12 10 8 7 7 9 9 9 10 10 9 8 8 10 12 14 15 16 17 17 16 16 17 18 19 19 20 20 21 21 22 23 24 25 26 27 28 29 29 30 30 31 32 32 31 30 29 30 31 32 32 32 32 32 33 33 33 34 34 33 32 33 34
16 17 18 18 19 19 20 21 20 19 19 19 19 19 19 17 17 16 16 16 15 14 12 11 9 8 9 10 9 9 9 9 8 8 9 11 13 14 16 17 17 17 16 17 18 19 21 22 21 21 22 22 23 24 25 26 27 28 29 29 29 28 29 30 31 32 32 31 31 32 33 34 34 34 34 34 34 34 34 34 34 34 33 33 34
15 16 18 18 18 20 20 19 19 19 19 19 18 17 17 17 16 16 17 16 14 13 12 10 8 9 11 10 8 8 8 7 7 8 10 12 13 14 15 16 17 17 17 18 19 21 22 23 23 23 23 24 25 26 27 28 28 28 29 29 29 29 29 29 30 30 31 31 32 33 34 35 35 35 35 36 37 37 37 36 35 35 35 35 34
12 14 15 16 17 18 18 19 19 18 18 18 17 17 18 18 17 17 16 15 13 12 10 8 9 11 10 8 7 7 7 6 7 8 11 12 13 14 16 17 17 18 19 20 21 22 23 23 24 25 26 26 27 28 28 28 28 28 29 29 29 30 30 30 29 29 29 31 33 34 34 35 36 36 37 37 38 38 37 37 37 36 36 36 36
12 14 15 15 17 17 17 18 18 17 17 16 16 17 18 18 17 16 15 14 13 11 9 10 12 12 9 7 6 6 6 6 7 9 11 13 14 15 17 18 19 20 21 22 22 23 24 25 26 27 27 28 28 29 29 28 28 29 29 29 30 30 30 30 29 29 29 31 34 36 37 38 39 39 39 39 39 38 37 37 37 37 37 37 37
15 16 15 15 15 15 16 17 18 18 17 16 16 17 19 18 16 14 13 13 11 10 11 13 12 10 8 6 5 6 6 7 8 10 12 14 15 17 18 19 21 21 22 23 24 25 26 27 27 28 28 28 29 29 29 29 29 29 30 30 31 31 31 31 31 31 32 34 36 38 40 41 43 43 43 42 42 41 40 39 38 38 38 38 38
15 15 14 14 15 15 16 17 18 19 19 19 18 18 18 17 14 13 12 10 10 11 14 13 10 8 6 5 5 7 7 8 9 11 13 15 16 18 19 21 22 23 23 24 26 27 27 28 28 29 29 29 29 29 29 30 30 30 31 31 32 32 32 32 32 33 35 37 39 41 42 42 43 43 43 43 43 43 43 42 42 41 40 40 40
13 11 12 14 15 16 16 17 18 19 20 20 18 18 17 15 13 11 10 10 12 14 14 11 9 8 6 5 6 8 8 9 11 13 15 16 18 19 20 22 23 24 25 26 27 28 28 29 29 29 29 30 30 30 30 30 31 32 33 33 33 33 33 32 33 34 36 39 41 42 43 43 43 42 42 43 43 44 44 44 44 44 43 43 43
Wind_Direction
329 333 335 338 342 343 341 342 346 348 347 344 340 337 337 338 342 345 345 346 348 352 352 349 346 351 358 359 359 359 359 359 0 0 0 2 7 10 11 13 15 15 10 6 4 0 357 356 357 1 8 16 20 22 23 26 28 32 38 42 42 41 38 34 31 29 26 22 17 11 7 5 3 360 355 347 336 325 317 310 304 299 295 291 287
325 327 330 334 339 339 338 340 344 345 344 342 338 335 334 334 338 342 343 343 344 345 345 345 343 347 355 357 357 356 356 357 358 358 357 357 360 2 2 360 357 354 350 350 349 348 348 350 353 355 1 7 8 9 12 15 18 23 28 34 35 33 33 32 31 30 27 24 17 12 9 9 5 358 352 343 332 323 315 310 306 302 298 294 290
320 323 326 331 335 335 336 339 341 342 342 340 337 334 331 331 334 338 340 339 338 338 338 339 339 342 350 354 354 354 354 354 355 355 355 354 354 354 353 350 347 344 342 342 341 342 344 348 350 351 354 356 357 357 0 4 5 6 9 12 15 19 22 24 26 28 25 19 14 10 6 5 360 349 342 335 328 321 315 310 306 303 299 296 292
317 319 323 328 330 331 334 337 337 338 338 337 335 331 329 328 330 334 336 334 331 331 331 332 334 337 344 350 352 353 352 352 353 353 353 351 349 347 346 344 341 339 338 338 339 341 344 347 347 349 349 350 350 350 352 355 356 355 356 359 4 9 14 17 16 14 10 6 4 3 357 354 349 337 332 329 325 320 316 312 308 304 300 297 293
315 316 320 323 324 327 332 333 332 334 335 334 332 329 326 325 327 330 331 329 325 323 323 325 328 331 339 346 350 352 351 351 352 352 351 349 346 343 340 339 338 335 334 334 336 339 343 346 345 345 346 347 347 346 348 351 352 352 354 356 0 4 6 6 2 357 353 351 349 349 344 341 338 328 324 324 324 322 318 314 310 306 302 298 295
312 313 316 318 319 323 327 328 327 330 332 332 330 326 323 322 324 326 326 324 320 316 316 318 321 326 334 343 348 350 350 350 350 351 349 347 345 342 338 336 335 333 330 328 330 335 341 345 344 343 344 345 345 346 348 352 354 354 355 356 357 356 355 352 348 345 342 340 337 336 333 332 330 321 320 324 325 322 318 315 312 308 305 302 300
308 310 312 313 316 320 322 322 323 327 329 329 328 324 321 320 321 321 321 319 314 309 309 312 316 321 329 340 346 348 348 348 349 350 349 347 345 343 339 335 331 328 327 326 327 332 339 343 342 342 342 345 347 350 354 358 360 359 357 354 351 348 346 342 337 335 334 332 330 329 328 327 322 317 321 325 325 321 319 318 317 314 311 308 305
305 306 307 310 315 316 317 318 320 323 326 327 326 321 318 317 317 317 315 314 308 303 303 306 311 315 324 336 344 345 345 345 347 349 349 347 344 342 339 334 327 324 324 324 327 331 336 340 341 341 342 346 353 360 5 7 6 1 356 349 345 343 340 335 332 332 331 328 326 325 325 321 317 319 324 325 324 323 323 322 320 318 315 312 309
303 302 303 308 311 312 313 315 316 319 323 324 323 318 314 313 313 312 309 308 302 297 297 301 305 309 320 334 341 342 341 343 346 348 349 347 344 341 338 333 327 322 321 322 326 330 334 338 340 341 343 350 3 12 15 12 7 360 351 345 342 340 336 331 332 333 331 328 325 326 324 319 318 323 325 324 324 325 324 323 321 319 316 314 311
300 298 301 304 306 308 309 311 312 315 318 320 319 314 310 309 309 307 303 302 296 291 292 295 299 304 316 331 338 338 339 341 345 348 347 346 343 341 337 333 327 320 317 319 323 328 332 337 341 343 347 357 11 17 15 9 3 356 349 343 340 338 335 333 335 335 333 330 327 329 326 319 320 325 325 324 324 323 322 320 320 318 317 314 312
296 296 298 300 301 303 305 306 307 310 314 316 315 310 305 305 306 303 296 295 290 285 287 290 295 301 314 328 333 333 336 340 344 346 345 344 342 341 338 335 329 319 315 315 319 324 329 337 342 346 355 4 12 12 8 4 359 354 348 342 339 338 336 335 338 337 335 334 332 332 327 322 323 328 327 325 322 320 319 318 318 317 317 315 313
291 294 295 296 297 299 301 302 302 305 309 311 310 305 302 303 304 298 289 288 283 281 282 287 292 299 313 324 328 329 334 339 342 344 345 344 342 341 340 337 331 322 316 314 317 322 329 337 344 349 0 10 7 6 2 358 356 352 346 340 336 338 338 336 341 340 338 338 336 333 328 325 328 330 327 323 320 317 317 316 317 317 317 316 314
291 292 292 293 293 295 297 297 298 302 304 307 307 301 299 301 301 292 282 281 277 277 281 286 291 298 311 319 322 326 332 337 339 342 344 345 343 342 341 339 336 329 324 322 323 327 332 339 346 351 2 9 4 1 358 355 353 348 342 336 333 340 342 339 343 342 339 341 338 333 331 331 331 330 326 322 318 316 316 315 316 316 317 316 314
292 292 291 291 291 293 294 294 295 298 300 303 302 297 296 299 297 286 275 275 275 277 281 285 289 296 307 314 318 323 328 332 337 342 344 345 346 345 345 344 342 338 335 333 334 337 339 343 352 359 4 4 1 358 355 352 349 345 338 332 331 341 346 339 340 340 340 341 339 337 337 336 332 329 325 321 318 316 315 314 314 314 313 312 312
294 294 292 290 291 291 291 291 294 295 297 299 297 293 293 295 292 280 270 272 274 277 280 283 286 294 302 306 312 319 322 328 337 343 343 344 348 347 347 348 348 346 344 346 348 348 346 346 354 6 10 0 355 352 351 347 344 341 335 328 326 337 346 339 335 336 340 341 339 339 337 333 328 324 320 317 314 313 312 310 310 308 307 307 307
296 295 292 290 290 288 288 290 292 293 295 295 291 289 290 291 288 275 269 271 274 276 277 279 283 290 296 300 309 315 317 326 337 343 342 342 347 347 346 348 350 349 350 353 355 355 350 345 347 346 346 345 344 345 345 343 339 337 332 323 320 328 341 340 333 332 336 337 335 333 328 325 322 317 314 312 310 309 307 306 306 305 304 304 305
297 296 292 287 284 283 286 288 290 291 292 289 285 285 287 288 283 272 268 271 272 274 274 275 280 286 290 296 307 312 314 325 335 341 342 341 343 344 344 344 346 349 351 355 355 354 349 341 330 293 300 321 332 339 341 340 338 335 331 323 317 323 335 345 342 336 332 331 331 327 323 320 318 315 313 312 311 310 308 307 306 306 305 305 304
296 294 288 282 279 281 284 287 288 288 286 282 281 282 284 285 280 271 268 269 270 271 272 274 278 283 287 296 306 310 311 322 332 338 341 340 340 341 341 341 342 344 346 347 348 347 344 338 323 296 300 317 329 336 338 338 337 337 335 328 320 322 333 344 348 344 337 330 327 325 323 322 319 317 315 314 314 313 311 310 309 308 307 306 305
292 290 287 283 282 285 287 287 287 283 279 278 279 281 282 281 277 270 266 266 268 269 271 274 278 282 287 296 304 307 309 317 328 336 340 340 339 338 338 338 338 337 335 334 333 335 335 330 320 310 316 325 332 335 337 339 342 345 344 339 333 328 332 340 344 344 341 335 328 324 324 323 321 318 317 316 315 314 313 312 310 309 307 306 305
290 290 292 292 294 294 290 287 282 276 275 275 278 280 279 278 274 269 265 265 267 270 274 277 280 283 288 295 303 305 305 312 323 332 338 340 338 335 334 334 335 332 327 324 324 328 328 325 321 321 326 331 333 335 339 344 349 352 352 348 344 337 334 335 338 339 339 338 333 328 326 325 324 323 321 318 317 315 313 311 309 308 307 306 304
292 294 296 299 298 295 291 285 279 275 275 277 277 276 275 274 273 267 263 265 269 275 278 279 281 284 289 296 302 304 302 308 318 328 336 339 338 335 332 331 332 331 327 324 325 329 332 331 330 330 333 334 335 337 343 348 352 353 351 349 346 341 336 332 333 335 337 338 337 334 331 328 326 325 324 322 319 316 314 311 310 309 308 306 304
293 293 292 292 293 291 290 286 283 281 280 279 276 272 271 271 270 265 263 267 274 279 279 279 281 284 291 297 304 305 302 306 314 323 333 339 339 336 332 329 329 331 332 330 332 337 341 342 339 337 339 340 341 343 345 349 352 351 349 347 346 343 339 333 331 333 337 338 339 338 335 332 328 326 326 324 322 319 316 313 311 310 308 306 303
287 285 284 284 286 287 287 289 287 287 285 282 277 270 268 269 267 264 265 271 276 278 279 280 282 286 292 298 304 305 302 303 308 318 330 337 339 336 330 327 326 329 335 336 337 340 346 348 345 344 346 348 348 346 346 349 351 350 348 347 347 346 344 338 332 332 335 337 339 338 337 335 332 330 328 326 324 321 318 315 312 310 307 304 301
279 277 277 279 282 283 284 287 286 286 288 284 279 272 267 268 267 266 267 270 273 275 279 282 284 289 293 298 302 303 302 300 304 313 325 332 335 334 328 323 323 327 333 335 337 342 348 351 352 351 351 353 352 349 348 349 350 350 348 347 346 346 345 342 336 332 332 334 336 336 336 335 333 331 329 328 325 322 319 316 313 311 307 302 300
273 272 273 276 279 282 284 284 284 284 285 282 280 276 270 268 268 266 266 267 270 274 279 282 286 289 292 296 299 300 298 297 300 307 316 321 325 329 327 323 321 325 330 332 338 346 351 352 354 354 352 354 353 350 348 348 347 346 345 344 343 342 341 340 336 331 329 330 332 332 332 332 331 330 329 327 325 323 320 317 315 310 305 302 301
268 273 275 277 277 279 283 283 285 284 280 279 279 279 274 269 267 265 264 265 267 271 275 278 281 284 287 291 294 295 293 292 294 297 302 308 314 321 325 323 321 324 328 330 336 344 350 351 354 355 352 352 350 347 345 343 342 340 339 338 336 335 334 333 331 327 324 325 327 327 328 328 328 328 328 327 325 323 320 317 314 308 304 303 305
265 272 273 275 276 275 278 280 284 283 277 275 274 275 275 269 265 263 263 265 267 268 270 273 275 277 280 283 287 288 286 285 285 285 289 298 306 313 320 321 318 321 324 325 331 340 345 346 350 351 348 345 342 339 336 334 332 331 330 328 327 326 325 324 323 321 320 321 321 322 322 323 323 324 325 325 324 322 319 316 313 309 306 305 308
254 263 270 271 274 275 276 278 281 277 270 267 265 269 274 270 265 266 268 270 271 270 272 275 277 279 283 286 288 288 285 281 280 282 286 292 300 307 313 313 310 312 315 318 326 333 336 337 340 340 337 334 331 328 326 324 322 321 321 319 318 317 317 317 316 315 314 314 313 313 315 317 318 320 321 322 322 321 318 316 315 313 309 308 312
255 259 269 272 274 279 281 282 281 273 262 258 258 264 272 271 269 271 272 273 273 274 276 278 281 285 290 292 292 292 288 283 280 282 284 284 289 298 302 303 302 301 300 303 311 319 322 323 325 324 323 323 321 320 317 317 315 315 315 313 313 313 313 313 313 312 311 311 310 312 313 314 315 315 316 317 317 318 316 315 316 313 309 311 313
292 280 274 274 274 279 283 287 286 278 266 257 255 261 270 271 272 273 273 274 275 277 278 280 284 288 289 289 288 289 287 284 281 277 275 274 277 285 290 292 293 291 289 291 296 303 309 313 315 316 317 314 313 313 311 311 311 312 312 312 313 313 314 314 314 313 312 311 311 312 312 311 311 311 311 311 312 313 312 312 313 310 307 309 310
297 293 284 276 271 273 278 282 286 285 274 258 253 254 265 272 275 275 275 275 276 279 279 280 282 284 286 287 287 287 284 282 279 271 265 265 268 275 280 284 285 284 284 287 291 298 305 310 311 312 310 307 306 308 309 310 310 310 310 312 313 314 314 313 312 311 310 309 308 309 308 308 308 307 307 307 307 308 307 307 307 306 305 307 309
288 289 286 276 266 269 274 276 280 281 270 257 256 254 262 272 274 275 275 274 275 277 279 280 282 286 290 291 288 286 282 277 271 264 258 258 264 272 277 280 282 282 284 287 292 299 305 309 309 308 304 303 306 309 311 310 308 307 308 310 311 310 309 308 308 308 308 308 308 308 308 308 307 306 305 304 303 303 303 304 305 305 304 305 308
283 285 283 276 271 271 271 271 273 272 264 260 263 262 262 270 272 273 271 272 275 276 279 281 285 290 292 292 289 287 283 275 268 261 254 253 262 270 276 281 283 285 288 291 294 300 306 308 305 303 302 305 309 310 309 308 307 307 308 310 309 306 306 307 308 309 310 309 309 309 309 308 307 306 304 303 302 302 302 302 302 302 302 303 305
277 278 278 282 282 276 270 267 266 265 263 266 268 264 261 266 270 270 270 271 274 276 279 281 286 290 291 291 288 288 286 279 274 265 254 250 257 268 278 285 287 290 292 292 295 300 304 303 298 299 303 308 309 308 308 310 310 309 310 310 307 306 307 309 310 311 311 310 309 309 308 308 306 304 303 302 301 301 301 300 299 298 298 300 301
269 270 273 279 282 278 270 264 262 262 266 269 269 263 261 265 269 270 270 271 272 276 280 282 287 288 287 288 285 285 286 281 276 265 253 249 256 268 278 285 287 289 289 290 294 298 299 298 298 302 307 308 307 308 309 310 308 308 309 308 306 307 310 312 312 312 311 310 309 308 307 306 305 303 301 301 300 300 299 298 297 296 295 297 298
264 266 269 271 273 273 266 260 260 260 261 263 262 258 260 266 270 270 270 270 272 277 282 286 287 283 280 281 282 284 285 281 274 262 251 248 255 268 276 280 284 284 285 289 294 296 298 299 302 305 307 307 307 307 308 308 307 308 310 309 309 311 313 314 314 313 312 311 309 309 308 307 305 303 301 300 299 298 298 296 295 294 293 294 295
265 268 269 267 266 263 259 260 261 258 258 258 256 254 260 268 273 271 270 271 273 276 279 283 282 278 275 276 279 283 285 280 272 260 249 246 254 264 270 275 279 282 285 290 293 296 299 301 302 302 304 306 306 307 309 310 309 311 312 311 312 313 315 315 315 315 314 313 312 311 310 309 307 305 303 301 299 297 296 294 292 291 290 291 292
272 272 269 265 260 256 255 260 261 259 258 255 254 257 263 268 270 268 269 270 270 271 275 279 278 275 272 272 275 280 282 274 262 254 244 243 252 261 268 275 279 282 285 288 292 295 298 300 300 301 304 306 307 309 310 311 310 311 312 312 313 314 316 316 316 315 315 314 313 312 311 310 308 306 305 303 301 299 296 294 291 289 288 288 289
276 271 266 262 257 252 251 255 258 259 257 255 258 263 265 266 265 263 264 264 263 266 273 277 275 272 271 271 272 275 277 268 257 251 241 239 250 263 271 277 280 282 284 287 291 294 297 299 301 304 307 308 309 310 310 310 309 310 312 313 315 316 317 316 316 315 315 313 312 311 311 309 308 306 305 303 302 300 298 295 292 290 289 288 287
278 270 263 261 257 252 252 255 257 256 255 256 260 264 264 265 263 258 258 259 257 261 267 270 271 271 272 271 269 266 262 255 250 246 241 243 257 267 273 276 278 281 283 286 290 294 299 302 304 307 309 310 310 311 311 310 310 311 313 315 316 317 317 316 316 316 315 314 313 312 311 310 309 307 306 304 303 301 299 297 294 292 290 288 287
278 272 265 259 254 254 255 255 254 254 254 255 258 262 267 272 265 255 257 260 257 257 260 263 267 270 272 272 267 256 244 236 235 237 241 254 267 273 276 278 279 281 284 287 293 298 302 305 307 308 310 310 311 311 310 310 310 311 314 315 314 314 314 315 316 316 315 315 314 314 313 312 310 309 307 306 304 303 301 298 296 293 291 289 287
276 271 265 258 254 255 254 252 254 257 258 258 260 265 274 278 265 253 256 258 256 257 259 263 266 270 274 270 258 242 230 224 227 235 250 264 272 277 279 280 281 283 287 292 298 302 305 307 308 309 309 309 308 308 308 308 308 310 312 314 314 314 315 317 318 317 316 316 316 315 314 313 311 310 308 306 305 303 302 300 297 294 291 289 287
274 269 265 260 256 252 252 261 267 265 261 260 262 266 274 273 258 249 253 255 254 255 258 261 262 265 262 245 230 224 224 229 233 242 256 265 272 277 279 281 283 287 292 298 303 305 306 307 307 307 307 306 305 305 305 305 306 308 311 313 314 315 317 318 319 318 317 316 316 315 314 313 312 310 308 306 304 303 302 301 299 295 292 289 287
273 268 264 260 255 251 260 275 275 267 261 260 262 266 267 260 248 247 253 254 254 252 252 251 252 254 238 222 222 232 240 244 245 249 256 265 272 275 278 282 285 290 295 300 303 303 304 304 304 305 304 303 303 303 304 305 306 308 309 311 312 314 316 317 319 318 317 316 315 316 315 314 313 312 309 307 306 305 303 302 300 297 294 290 287
274 268 263 258 252 254 266 275 271 264 262 262 264 264 258 246 242 247 252 253 250 245 243 243 246 244 229 229 243 253 251 249 250 255 259 266 270 273 278 282 286 291 295 299 300 300 301 303 304 304 304 304 304 304 304 304 306 307 308 310 312 314 315 316 317 317 316 316 317 317 317 316 315 313 311 309 308 307 305 302 300 297 295 292 289
272 268 262 257 255 260 267 269 265 264 266 266 264 257 246 240 243 248 250 249 243 238 238 239 244 240 232 238 251 250 247 247 251 258 263 267 270 274 279 283 288 293 296 298 299 299 301 303 305 306 306 307 306 305 305 305 306 307 309 312 314 315 315 315 315 314 314 314 315 315 315 314 314 312 311 310 308 307 305 303 300 297 295 293 290
264 263 262 260 261 264 264 263 263 266 270 269 260 245 238 239 243 244 245 244 236 232 236 238 236 235 233 236 241 242 246 249 255 263 267 271 275 279 282 286 291 295 297 299 299 300 303 305 307 308 308 308 307 306 306 307 308 310 312 313 314 314 313 313 312 311 311 312 313 313 313 313 312 312 311 309 307 306 304 302 300 298 295 294 292
262 265 267 265 264 262 260 262 265 270 272 264 251 239 236 238 239 239 241 238 229 225 232 234 226 224 226 228 231 241 250 255 261 267 272 277 280 283 286 290 293 297 299 300 301 303 306 308 308 308 307 306 306 307 308 309 310 311 313 313 313 313 313 313 311 310 309 310 311 313 313 314 313 313 311 310 307 305 303 301 299 298 296 295 293
269 271 269 263 259 256 257 262 268 270 266 255 245 239 238 239 238 237 238 237 233 227 226 224 220 222 227 224 228 243 251 257 264 270 275 279 282 286 290 293 297 300 302 304 305 306 308 308 307 306 306 307 308 309 310 311 312 313 314 313 313 313 314 314 312 311 311 312 314 315 315 315 315 314 313 311 309 307 305 303 301 299 297 295 294
270 270 264 255 254 254 257 262 265 264 260 254 248 244 243 240 234 233 235 238 239 229 221 219 220 224 220 214 232 246 254 262 269 274 278 281 285 290 294 298 302 304 306 307 307 307 307 306 306 306 307 309 310 311 312 313 314 314 314 313 314 315 315 315 314 313 314 314 315 315 315 314 314 313 312 311 309 307 306 304 303 301 299 296 294
264 262 251 249 253 256 260 263 262 259 256 254 250 246 243 233 226 230 233 231 228 222 219 219 218 210 198 211 236 247 257 267 272 277 281 286 292 297 301 303 305 307 307 307 306 306 306 306 307 308 309 310 311 313 313 314 314 314 314 314 315 315 315 315 314 314 314 314 315 314 314 313 312 311 310 309 307 306 305 304 302 301 299 298 296
Height
5885 5884 5883 5882 5881 5881 5880 5879 5878 5876 5876 5875 5873 5872 5871 5870 5869 5869 5869 5869 5869 5868 5868 5868 5867 5866 5865 5864 5863 5862 5861 5860 5859 5858 5857 5856 5855 5854 5853 5853 5852 5851 5851 5851 5850 5850 5849 5849 5848 5848 5848 5847 5847 5846 5845 5845 5844 5844 5843 5843 5842 5841 5841 5840 5840 5839 5839 5838 5838 5837 5837 5836 5835 5835 5834 5833 5833 5833 5832 5832 5831 5830 5829 5829 5828
5885 5884 5882 5882 5881 5881 5880 5879 5878 5877 5876 5874 5873 5872 5871 5870 5870 5869 5869 5869 5868 5868 5868 5868 5867 5866 5865 5864 5863 5862 5862 5861 5860 5859 5857 5856 5855 5854 5853 5853 5852 5852 5851 5851 5851 5850 5850 5849 5849 5848 5848 5847 5847 5846 5846 5845 5844 5844 5843 5842 5842 5841 5841 5840 5840 5839 5838 5838 5838 5837 5836 5836 5835 5834 5833 5833 5833 5832 5832 5831 5831 5830 5829 5828 5828
5884 5883 5882 5881 5881 5880 5880 5879 5877 5877 5876 5874 5873 5872 5871 5870 5870 5869 5869 5868 5868 5868 5868 5867 5867 5866 5865 5864 5863 5863 5862 5861 5860 5859 5858 5856 5855 5854 5854 5853 5852 5852 5851 5851 5851 5850 5850 5850 5849 5849 5848 5847 5847 5846 5845 5845 5844 5843 5843 5842 5842 5841 5840 5840 5839 5839 5838 5838 5837 5837 5836 5835 5834 5834 5833 5833 5832 5832 5831 5831 5830 5830 5829 5828 5827
5884 5882 5881 5881 5880 5880 5879 5878 5877 5877 5876 5874 5873 5872 5871 5870 5870 5869 5869 5868 5868 5868 5868 5867 5866 5866 5865 5864 5864 5863 5862 5861 5860 5859 5858 5857 5856 5854 5854 5853 5852 5852 5851 5851 5851 5850 5850 5850 5849 5849 5848 5847 5847 5846 5845 5845 5844 5843 5842 5842 5841 5841 5840 5839 5839 5838 5838 5837 5837 5836 5835 5835 5834 5834 5833 5833 5832 5832 5831 5831 5830 5829 5828 5827 5827
5883 5882 5881 5881 5880 5879 5878 5878 5877 5876 5875 5874 5872 5872 5871 5870 5870 5869 5869 5868 5868 5868 5867 5867 5866 5865 5865 5864 5864 5863 5862 5862 5861 5859 5858 5857 5856 5854 5853 5853 5852 5852 5851 5851 5851 5850 5850 5850 5849 5849 5848 5847 5847 5846 5845 5844 5844 5843 5842 5842 5841 5840 5840 5839 5839 5838 5838 5837 5836 5836 5835 5835 5834 5834 5833 5832 5832 5831 5831 5830 5829 5829 5828 5827 5826
5883 5881 5881 5880 5879 5879 5878 5877 5877 5876 5874 5873 5872 5871 5871 5870 5869 5869 5868 5868 5867 5867 5867 5866 5866 5865 5864 5864 5864 5863 5862 5862 5861 5859 5858 5857 5856 5854 5854 5853 5852 5852 5851 5851 5850 5850 5850 5850 5849 5849 5848 5847 5847 5846 5845 5844 5844 5843 5842 5842 5841 5840 5840 5839 5838 5838 5837 5837 5836 5836 5835 5834 5834 5833 5833 5832 5831 5831 5830 5830 5829 5828 5827 5826 5825
5881 5881 5880 5880 5879 5878 5877 5876 5876 5875 5874 5873 5872 5871 5870 5870 5869 5869 5868 5867 5867 5867 5866 5866 5865 5864 5864 5864 5863 5863 5862 5862 5861 5859 5858 5857 5856 5855 5854 5853 5852 5851 5851 5850 5850 5850 5850 5849 5849 5848 5848 5847 5847 5846 5845 5845 5844 5843 5842 5842 5841 5840 5840 5839 5838 5838 5837 5837 5836 5835 5835 5834 5833 5833 5832 5832 5831 5830 5830 5829 5828 5827 5826 5825 5825
5880 5880 5879 5878 5878 5877 5876 5876 5875 5874 5873 5872 5871 5871 5870 5869 5869 5868 5867 5867 5866 5866 5866 5865 5865 5864 5864 5863 5863 5863 5862 5861 5860 5859 5858 5857 5856 5854 5853 5853 5852 5851 5851 5850 5850 5849 5849 5849 5848 5848 5847 5847 5846 5846 5845 5845 5844 5843 5842 5842 5841 5840 5840 5839 5838 5838 5837 5836 5836 5835 5834 5834 5833 5832 5832 5831 5830 5830 5829 5828 5827 5826 5825 5825 5824
5880 5879 5878 5877 5877 5876 5875 5874 5874 5873 5872 5871 5871 5870 5869 5868 5868 5867 5866 5866 5866 5865 5865 5865 5864 5863 5863 5863 5863 5862 5862 5861 5860 5859 5858 5857 5856 5854 5853 5852 5851 5851 5850 5850 5850 5849 5849 5848 5848 5847 5847 5847 5846 5846 5845 5844 5844 5843 5842 5842 5841 5840 5839 5838 5838 5837 5836 5836 5835 5834 5834 5833 5832 5832 5831 5830 5829 5829 5828 5827 5826 5825 5825 5824 5823
5878 5877 5876 5876 5875 5875 5874 5873 5872 5872 5871 5870 5870 5869 5868 5868 5867 5866 5866 5865 5865 5865 5864 5864 5863 5863 5863 5863 5863 5862 5861 5861 5860 5859 5858 5857 5855 5854 5853 5852 5851 5850 5850 5850 5849 5849 5849 5848 5848 5847 5847 5846 5846 5845 5845 5844 5843 5843 5842 5841 5841 5840 5839 5838 5838 5837 5836 5835 5834 5834 5833 5832 5832 5831 5830 5829 5828 5828 5827 5826 5825 5824 5823 5822 5822
5876 5876 5875 5874 5874 5873 5873 5872 5871 5870 5870 5869 5869 5868 5867 5867 5866 5865 5865 5864 5864 5864 5863 5863 5863 5863 5862 5862 5862 5862 5861 5861 5860 5859 5858 5856 5855 5854 5853 5852 5851 5850 5850 5849 5849 5849 5848 5848 5848 5847 5847 5846 5846 5845 5845 5844 5843 5843 5842 5841 5840 5840 5839 5838 5837 5836 5835 5834 5834 5833 5832 5832 5831 5830 5829 5828 5827 5827 5826 5825 5824 5823 5822 5821 5820
5875 5874 5874 5873 5872 5872 5872 5871 5870 5869 5868 5868 5867 5867 5866 5866 5865 5864 5864 5863 5863 5863 5863 5863 5863 5862 5862 5862 5862 5862 5861 5860 5859 5858 5857 5856 5854 5853 5852 5851 5850 5850 5849 5849 5849 5848 5848 5848 5847 5847 5847 5846 5846 5845 5845 5844 5843 5842 5841 5840 5840 5839 5838 5837 5837 5836 5835 5834 5833 5832 5832 5831 5830 5829 5828 5828 5827 5826 5825 5825 5824 5823 5822 5821 5819
5873 5872 5872 5871 5871 5871 5870 5869 5868 5868 5867 5867 5866 5866 5865 5865 5864 5863 5863 5862 5862 5862 5862 5862 5862 5862 5862 5862 5862 5861 5861 5860 5859 5858 5857 5856 5854 5853 5852 5851 5850 5849 5849 5849 5848 5848 5848 5847 5847 5847 5847 5846 5846 5846 5845 5844 5843 5842 5841 5840 5839 5839 5838 5837 5836 5835 5834 5833 5833 5832 5831 5831 5830 5829 5828 5827 5827 5826 5825 5824 5823 5822 5821 5820 5819
5870 5870 5870 5870 5870 5869 5869 5868 5867 5867 5866 5866 5865 5865 5864 5863 5863 5862 5862 5861 5861 5862 5862 5862 5862 5862 5862 5861 5861 5861 5860 5860 5859 5857 5856 5855 5854 5852 5851 5850 5849 5849 5848 5848 5848 5848 5847 5847 5847 5847 5847 5847 5846 5846 5845 5844 5843 5842 5841 5839 5839 5839 5838 5837 5836 5835 5834 5833 5833 5832 5831 5830 5830 5829 5828 5827 5826 5826 5825 5824 5823 5821 5820 5819 5818
5868 5869 5869 5869 5868 5868 5867 5867 5866 5865 5865 5865 5864 5864 5863 5862 5861 5861 5861 5861 5861 5861 5861 5861 5861 5861 5861 5860 5860 5860 5860 5859 5858 5857 5856 5855 5853 5852 5851 5850 5849 5848 5848 5848 5848 5848 5847 5847 5847 5847 5847 5846 5846 5846 5845 5844 5843 5842 5841 5839 5838 5838 5838 5837 5836 5835 5834 5833 5833 5832 5831 5830 5829 5828 5828 5827 5826 5825 5824 5823 5822 5820 5819 5818 5816
5867 5867 5868 5867 5867 5866 5865 5865 5865 5864 5864 5864 5863 5862 5862 5861 5860 5860 5860 5860 5860 5860 5860 5860 5860 5860 5860 5860 5860 5860 5859 5859 5858 5857 5856 5854 5853 5852 5851 5850 5849 5848 5848 5848 5847 5847 5847 5847 5846 5846 5846 5846 5845 5845 5845 5844 5843 5842 5841 5839 5838 5838 5838 5837 5835 5834 5834 5833 5832 5831 5830 5830 5829 5828 5827 5826 5825 5824 5823 5822 5820 5819 5818 5816 5815
5866 5866 5866 5865 5865 5864 5864 5863 5863 5863 5862 5862 5861 5861 5861 5860 5859 5859 5859 5860 5860 5860 5859 5859 5859 5859 5859 5859 5859 5859 5859 5859 5858 5857 5856 5854 5853 5852 5851 5850 5849 5848 5848 5847 5847 5847 5847 5846 5846 5846 5846 5845 5845 5845 5844 5844 5843 5842 5841 5840 5838 5837 5837 5837 5835 5834 5833 5833 5832 5831 5830 5829 5828 5827 5826 5825 5824 5823 5822 5821 5819 5818 5816 5815 5814
5864 5864 5863 5862 5862 5862 5862 5862 5862 5861 5860 5860 5860 5860 5859 5859 5859 5859 5859 5859 5859 5859 5858 5858 5858 5858 5858 5858 5859 5859 5859 5859 5858 5857 5856 5854 5853 5851 5850 5849 5849 5848 5847 5847 5847 5847 5846 5846 5846 5846 5845 5845 5845 5844 5844 5843 5842 5841 5841 5839 5838 5837 5836 5836 5836 5835 5834 5833 5832 5831 5830 5829 5828 5827 5826 5825 5823 5822 5821 5820 5818 5816 5815 5813 5812
5862 5861 5861 5860 5860 5860 5860 5860 5860 5859 5858 5858 5858 5858 5858 5858 5858 5858 5858 5858 5858 5858 5857 5857 5857 5857 5857 5858 5859 5859 5859 5859 5858 5857 5856 5855 5853 5851 5850 5849 5848 5848 5847 5847 5847 5846 5846 5846 5846 5845 5845 5845 5844 5844 5843 5842 5842 5841 5840 5839 5838 5837 5836 5835 5835 5834 5834 5833 5832 5830 5829 5828 5827 5826 5825 5824 5822 5821 5820 5818 5817 5815 5814 5812 5810
5860 5860 5859 5859 5859 5859 5858 5858 5857 5856 5856 5856 5857 5857 5857 5857 5857 5858 5857 5857 5857 5857 5857 5856 5856 5857 5857 5858 5858 5858 5858 5858 5858 5857 5857 5855 5853 5851 5850 5849 5848 5848 5847 5847 5846 5846 5845 5845 5845 5845 5845 5844 5844 5843 5843 5842 5841 5841 5840 5839 5838 5837 5836 5835 5834 5834 5833 5832 5831 5830 5829 5827 5826 5825 5824 5823 5821 5820 5818 5816 5815 5813 5812 5810 5808
5858 5859 5859 5858 5858 5857 5856 5855 5855 5855 5855 5855 5856 5856 5856 5856 5857 5857 5856 5856 5857 5857 5857 5856 5856 5856 5857 5857 5858 5858 5858 5858 5858 5857 5856 5855 5854 5852 5850 5849 5848 5847 5847 5846 5845 5845 5845 5845 5844 5844 5844 5844 5843 5843 5842 5842 5841 5841 5840 5839 5838 5836 5835 5834 5833 5833 5832 5831 5831 5829 5828 5827 5826 5824 5823 5822 5820 5818 5817 5815 5813 5812 5810 5809 5807
5857 5857 5857 5856 5855 5854 5854 5853 5854 5854 5854 5854 5855 5855 5855 5855 5855 5856 5856 5856 5857 5857 5856 5856 5856 5856 5856 5857 5857 5858 5857 5857 5857 5856 5856 5855 5854 5852 5851 5849 5848 5847 5846 5845 5845 5844 5844 5844 5844 5843 5843 5843 5842 5842 5842 5841 5840 5840 5839 5838 5837 5836 5835 5833 5832 5832 5831 5831 5830 5829 5828 5827 5825 5824 5822 5821 5819 5817 5815 5813 5811 5810 5808 5807 5805
5854 5854 5853 5852 5852 5851 5852 5852 5853 5853 5854 5854 5854 5854 5853 5854 5854 5855 5856 5856 5856 5855 5855 5855 5855 5855 5855 5856 5856 5856 5857 5856 5856 5855 5855 5854 5853 5852 5851 5849 5848 5847 5846 5845 5844 5844 5843 5843 5843 5842 5842 5842 5842 5841 5841 5840 5840 5839 5838 5837 5836 5835 5834 5833 5832 5831 5830 5830 5829 5828 5827 5825 5824 5823 5821 5819 5818 5816 5813 5811 5809 5807 5806 5804 5803
5851 5851 5850 5850 5850 5850 5851 5852 5852 5853 5853 5853 5853 5853 5852 5853 5854 5855 5855 5855 5855 5854 5854 5854 5854 5855 5855 5855 5855 5855 5855 5855 5855 5854 5854 5853 5853 5852 5851 5850 5848 5847 5846 5845 5844 5843 5842 5842 5842 5841 5841 5841 5841 5840 5840 5839 5839 5838 5837 5836 5835 5834 5834 5833 5832 5830 5829 5828 5827 5826 5825 5824 5823 5821 5820 5818 5817 5814 5812 5810 5808 5806 5804 5802 5801
5848 5848 5849 5849 5849 5849 5850 5850 5851 5852 5852 5852 5852 5852 5852 5852 5853 5854 5854 5854 5853 5854 5854 5854 5853 5854 5854 5854 5853 5853 5853 5853 5853 5853 5853 5852 5852 5852 5851 5850 5848 5847 5846 5844 5843 5842 5842 5841 5841 5840 5840 5840 5839 5839 5839 5838 5837 5837 5836 5835 5834 5833 5833 5832 5831 5830 5829 5828 5826 5825 5824 5823 5821 5820 5819 5817 5815 5813 5811 5808 5806 5804 5801 5800 5799
5846 5847 5848 5848 5848 5848 5849 5849 5849 5850 5850 5851 5851 5852 5852 5852 5852 5852 5852 5852 5852 5852 5852 5852 5852 5852 5852 5852 5852 5852 5851 5851 5852 5852 5852 5851 5851 5851 5850 5850 5848 5847 5846 5844 5843 5842 5841 5840 5840 5839 5839 5838 5838 5838 5838 5837 5836 5836 5835 5834 5833 5832 5832 5831 5830 5829 5828 5827 5826 5825 5823 5822 5821 5819 5818 5816 5814 5812 5809 5807 5804 5802 5799 5798 5798
5845 5846 5847 5847 5847 5847 5848 5848 5848 5848 5848 5849 5850 5850 5851 5851 5851 5851 5851 5851 5851 5851 5850 5850 5849 5849 5850 5850 5850 5850 5850 5850 5850 5851 5850 5850 5850 5850 5850 5849 5848 5847 5846 5844 5843 5841 5840 5840 5839 5838 5838 5837 5837 5837 5837 5836 5836 5835 5834 5833 5832 5831 5830 5829 5829 5828 5827 5825 5824 5823 5822 5821 5819 5818 5816 5815 5813 5810 5808 5805 5803 5800 5798 5796 5797
5843 5844 5844 5845 5846 5847 5847 5847 5847 5846 5846 5847 5848 5849 5850 5850 5849 5850 5850 5850 5850 5850 5849 5848 5848 5848 5848 5848 5848 5849 5849 5848 5849 5849 5849 5849 5849 5849 5849 5848 5848 5847 5846 5844 5843 5841 5840 5839 5838 5837 5837 5836 5836 5836 5835 5835 5834 5834 5833 5832 5831 5830 5829 5828 5827 5826 5825 5824 5823 5822 5820 5819 5818 5816 5815 5813 5811 5809 5806 5804 5801 5798 5795 5795 5795
5840 5842 5843 5844 5845 5845 5846 5845 5845 5844 5844 5845 5846 5847 5848 5848 5848 5849 5849 5849 5849 5849 5848 5847 5847 5847 5847 5847 5847 5847 5847 5847 5846 5847 5847 5847 5847 5847 5848 5848 5847 5846 5846 5845 5843 5842 5840 5839 5838 5837 5836 5836 5835 5834 5834 5833 5832 5832 5831 5830 5829 5828 5827 5826 5825 5824 5823 5822 5820 5819 5818 5817 5815 5814 5812 5811 5809 5807 5805 5802 5800 5796 5793 5793 5793
5840 5842 5843 5843 5843 5844 5844 5844 5844 5844 5844 5844 5845 5846 5847 5847 5847 5848 5848 5848 5847 5847 5847 5846 5846 5846 5845 5845 5845 5845 5845 5844 5844 5844 5845 5846 5846 5846 5846 5846 5846 5846 5845 5844 5843 5841 5840 5839 5838 5837 5836 5835 5834 5834 5833 5832 5831 5830 5829 5828 5827 5826 5825 5824 5822 5821 5820 5819 5818 5817 5816 5815 5813 5812 5811 5809 5808 5806 5804 5801 5798 5794 5790 5791 5791
5839 5841 5842 5842 5842 5842 5842 5843 5843 5843 5844 5844 5844 5844 5845 5846 5846 5846 5846 5846 5845 5845 5845 5844 5844 5844 5844 5843 5843 5842 5842 5842 5842 5842 5843 5844 5844 5844 5844 5845 5845 5845 5844 5843 5842 5841 5840 5839 5838 5837 5836 5835 5834 5833 5832 5831 5830 5829 5828 5826 5825 5824 5823 5822 5821 5819 5818 5817 5816 5815 5814 5813 5812 5810 5809 5807 5806 5804 5802 5800 5796 5792 5788 5787 5788
5837 5838 5839 5840 5839 5840 5841 5841 5841 5842 5843 5843 5843 5843 5843 5844 5845 5845 5844 5843 5843 5842 5842 5842 5842 5842 5842 5841 5841 5840 5839 5839 5839 5840 5841 5841 5842 5842 5842 5843 5843 5843 5843 5842 5841 5840 5839 5838 5837 5836 5835 5834 5833 5832 5831 5830 5829 5828 5827 5825 5824 5823 5822 5821 5820 5818 5817 5816 5814 5813 5812 5811 5810 5808 5806 5805 5803 5801 5800 5798 5795 5791 5786 5785 5786
5835 5836 5837 5837 5837 5838 5839 5839 5839 5840 5841 5841 5842 5842 5842 5843 5843 5843 5842 5841 5841 5840 5840 5840 5840 5840 5839 5839 5838 5838 5837 5837 5837 5838 5838 5839 5839 5840 5840 5841 5841 5841 5841 5841 5840 5839 5838 5836 5835 5834 5834 5832 5831 5830 5830 5829 5828 5827 5825 5824 5823 5821 5820 5819 5818 5817 5815 5814 5812 5811 5810 5809 5807 5805 5803 5801 5800 5799 5798 5796 5793 5789 5785 5784 5785
5833 5833 5834 5835 5835 5836 5836 5837 5837 5837 5838 5839 5839 5840 5840 5841 5841 5840 5839 5839 5838 5838 5837 5837 5837 5837 5837 5837 5836 5836 5835 5835 5836 5836 5837 5837 5838 5838 5839 5839 5839 5839 5839 5839 5838 5837 5836 5835 5834 5833 5832 5831 5830 5829 5828 5827 5826 5825 5824 5823 5821 5820 5819 5818 5816 5815 5813 5811 5810 5808 5807 5806 5804 5802 5801 5799 5797 5796 5795 5794 5791 5788 5785 5782 5782
5830 5831 5832 5833 5833 5833 5834 5834 5835 5835 5836 5836 5837 5838 5838 5839 5839 5838 5837 5837 5836 5835 5835 5835 5835 5835 5835 5835 5835 5835 5834 5834 5834 5835 5835 5836 5836 5836 5837 5838 5838 5838 5837 5837 5836 5835 5834 5833 5832 5831 5830 5829 5828 5827 5826 5826 5825 5823 5822 5821 5819 5818 5817 5816 5814 5813 5811 5809 5807 5806 5805 5803 5802 5800 5798 5796 5794 5793 5792 5791 5788 5786 5783 5781 5779
5827 5828 5830 5830 5831 5831 5831 5832 5833 5833 5833 5834 5835 5835 5836 5836 5836 5836 5835 5834 5834 5833 5832 5832 5833 5833 5833 5833 5833 5833 5833 5832 5832 5833 5834 5834 5835 5835 5836 5836 5836 5836 5836 5835 5835 5834 5833 5832 5831 5829 5828 5827 5826 5825 5825 5824 5823 5821 5820 5818 5816 5815 5814 5813 5811 5810 5808 5806 5805 5803 5802 5800 5799 5796 5795 5793 5792 5790 5789 5788 5786 5783 5781 5778 5776
5824 5825 5827 5827 5828 5828 5829 5829 5830 5830 5831 5831 5832 5833 5834 5834 5834 5833 5833 5832 5831 5831 5830 5830 5831 5831 5831 5831 5831 5831 5831 5831 5830 5831 5832 5833 5833 5834 5834 5834 5835 5835 5834 5834 5833 5832 5832 5830 5829 5827 5826 5826 5825 5824 5823 5822 5820 5819 5818 5816 5814 5813 5812 5810 5808 5807 5805 5803 5802 5800 5799 5797 5796 5793 5791 5790 5788 5787 5786 5785 5783 5780 5778 5776 5773
5822 5822 5823 5824 5825 5825 5826 5827 5827 5827 5828 5829 5830 5831 5832 5832 5831 5831 5831 5830 5830 5829 5828 5828 5828 5829 5829 5829 5829 5829 5829 5829 5829 5830 5831 5832 5832 5832 5833 5833 5833 5833 5833 5832 5831 5831 5830 5829 5827 5826 5825 5824 5823 5822 5820 5819 5818 5816 5815 5814 5812 5811 5809 5807 5806 5804 5802 5801 5799 5797 5796 5794 5793 5791 5788 5787 5785 5784 5783 5781 5779 5777 5775 5773 5771
5819 5820 5820 5821 5822 5823 5824 5824 5825 5825 5826 5827 5828 5829 5830 5830 5829 5829 5829 5829 5828 5827 5826 5826 5826 5826 5826 5826 5827 5826 5827 5828 5828 5829 5830 5831 5831 5831 5831 5831 5831 5831 5830 5830 5829 5829 5828 5827 5825 5824 5823 5822 5821 5820 5818 5817 5815 5814 5813 5811 5810 5808 5806 5805 5803 5801 5799 5798 5796 5794 5793 5791 5789 5788 5786 5784 5782 5781 5780 5778 5776 5774 5771 5769 5767
5817 5818 5818 5819 5819 5820 5821 5821 5822 5823 5823 5824 5825 5827 5827 5827 5826 5826 5827 5826 5826 5825 5824 5824 5824 5824 5824 5824 5824 5825 5825 5826 5827 5828 5829 5829 5830 5830 5830 5829 5829 5829 5829 5828 5827 5827 5826 5825 5823 5822 5821 5820 5819 5818 5816 5815 5813 5811 5810 5808 5807 5805 5803 5801 5800 5798 5796 5794 5793 5791 5790 5788 5786 5784 5783 5781 5779 5778 5777 5775 5773 5771 5768 5766 5764
5815 5816 5816 5816 5817 5817 5818 5819 5819 5820 5821 5822 5823 5824 5825 5824 5824 5824 5824 5824 5823 5822 5822 5822 5822 5822 5822 5822 5823 5823 5824 5825 5826 5827 5827 5827 5828 5828 5828 5828 5827 5827 5827 5826 5825 5824 5823 5823 5822 5821 5819 5818 5817 5816 5814 5812 5810 5808 5807 5806 5804 5803 5801 5799 5797 5795 5793 5791 5790 5788 5786 5785 5783 5781 5779 5778 5776 5775 5774 5772 5770 5768 5765 5762 5760
5813 5813 5814 5814 5815 5815 5816 5817 5818 5818 5818 5819 5820 5821 5822 5822 5822 5822 5822 5821 5820 5820 5820 5820 5820 5820 5820 5820 5821 5822 5823 5824 5825 5825 5825 5825 5826 5826 5826 5826 5826 5825 5825 5824 5823 5822 5821 5821 5820 5819 5818 5816 5815 5814 5812 5810 5808 5806 5804 5802 5801 5799 5797 5795 5794 5791 5789 5788 5786 5785 5783 5781 5780 5778 5776 5774 5773 5771 5770 5769 5767 5765 5762 5759 5757
5810 5811 5811 5812 5813 5814 5814 5815 5815 5816 5816 5816 5817 5818 5819 5820 5820 5820 5819 5819 5818 5818 5818 5818 5819 5819 5819 5819 5820 5821 5822 5822 5823 5823 5823 5823 5824 5824 5825 5825 5824 5823 5822 5821 5821 5820 5819 5819 5818 5817 5816 5815 5814 5812 5810 5808 5806 5804 5802 5799 5797 5795 5793 5791 5790 5788 5786 5785 5783 5782 5780 5779 5777 5775 5774 5772 5770 5768 5766 5765 5763 5762 5759 5756 5753
5808 5809 5810 5811 5811 5812 5812 5813 5813 5813 5813 5814 5815 5816 5817 5817 5818 5817 5817 5816 5816 5816 5816 5816 5817 5817 5818 5818 5819 5820 5820 5821 5821 5821 5822 5822 5822 5823 5823 5823 5822 5822 5821 5820 5819 5818 5818 5817 5817 5816 5814 5813 5812 5810 5808 5806 5803 5802 5800 5797 5795 5792 5790 5788 5786 5785 5783 5781 5780 5779 5777 5775 5774 5772 5770 5769 5767 5765 5763 5761 5759 5758 5755 5753 5750
5806 5807 5808 5809 5809 5810 5810 5810 5810 5811 5811 5812 5812 5813 5814 5814 5814 5814 5814 5814 5814 5814 5814 5815 5816 5816 5817 5818 5818 5819 5819 5819 5819 5820 5820 5821 5821 5822 5822 5821 5821 5820 5820 5819 5818 5817 5816 5815 5814 5813 5812 5811 5809 5807 5805 5803 5801 5799 5797 5794 5792 5790 5788 5786 5784 5781 5779 5778 5777 5775 5773 5772 5770 5768 5767 5765 5763 5761 5759 5758 5756 5754 5751 5749 5747
5804 5805 5806 5806 5807 5807 5807 5807 5808 5809 5809 5809 5810 5810 5811 5811 5811 5811 5811 5811 5811 5812 5812 5813 5814 5815 5816 5816 5817 5817 5817 5818 5818 5818 5819 5820 5820 5820 5820 5820 5819 5819 5818 5817 5816 5815 5814 5813 5812 5810 5809 5807 5806 5804 5802 5800 5798 5796 5793 5791 5789 5787 5786 5784 5782 5779 5777 5775 5774 5772 5771 5769 5767 5765 5763 5761 5759 5757 5755 5753 5752 5750 5747 5745 5743
5802 5803 5804 5804 5804 5804 5804 5805 5806 5806 5807 5807 5808 5808 5809 5809 5809 5809 5809 5809 5810 5810 5811 5812 5813 5813 5814 5814 5815 5815 5816 5816 5816 5817 5818 5818 5819 5819 5819 5818 5817 5817 5816 5815 5814 5813 5811 5810 5808 5807 5805 5804 5802 5801 5799 5797 5794 5792 5790 5788 5786 5785 5783 5781 5780 5778 5775 5773 5771 5769 5768 5766 5764 5762 5760 5758 5756 5753 5751 5749 5747 5745 5743 5741 5739
5800 5800 5801 5802 5802 5802 5802 5803 5804 5804 5805 5805 5806 5806 5806 5807 5807 5807 5807 5808 5808 5809 5810 5811 5811 5811 5812 5813 5813 5813 5814 5814 5815 5816 5816 5817 5817 5817 5817 5816 5815 5815 5814 5813 5811 5810 5808 5807 5805 5804 5802 5801 5799 5797 5795 5793 5791 5789 5787 5785 5784 5782 5780 5778 5777 5775 5773 5771 5768 5766 5763 5762 5760 5758 5756 5753 5751 5749 5747 5745 5743 5741 5738 5736 5734
5798 5798 5799 5799 5799 5799 5800 5801 5802 5802 5803 5804 5804 5805 5805 5805 5805 5806 5806 5807 5807 5808 5809 5809 5809 5810 5811 5811 5811 5812 5812 5813 5814 5814 5815 5815 5815 5815 5814 5813 5813 5812 5811 5810 5808 5806 5805 5804 5802 5801 5799 5797 5795 5793 5791 5789 5787 5786 5784 5782 5780 5778 5776 5775 5773 5771 5769 5767 5765 5762 5759 5756 5754 5752 5750 5748 5745 5743 5742 5740 5738 5736 5734 5731 5729
5796 5796 5796 5797 5797 5798 5799 5799 5800 5801 5802 5803 5803 5803 5803 5804 5804 5804 5805 5805 5806 5807 5807 5808 5808 5809 5809 5809 5809 5810 5811 5811 5812 5813 5813 5813 5813 5813 5812 5810 5810 5809 5808 5806 5805 5803 5802 5801 5799 5798 5796 5794 5792 5790 5787 5786 5784 5782 5781 5779 5777 5775 5773 5771 5769 5767 5765 5763 5760 5758 5755 5753 5750 5747 5745 5743 5740 5738 5736 5734 5732 5730 5728 5726 5724
5794 5794 5794 5795 5795 5796 5797 5798 5798 5799 5800 5801 5801 5801 5801 5802 5802 5803 5803 5804 5805 5805 5806 5806 5807 5807 5807 5807 5808 5809 5809 5810 5810 5811 5811 5811 5810 5810 5809 5808 5807 5806 5805 5803 5802 5800 5799 5797 5796 5794 5792 5790 5788 5786 5784 5783 5781 5779 5777 5775 5774 5772 5770 5768 5766 5764 5761 5759 5756 5754 5751 5749 5747 5745 5742 5739 5736 5734 5731 5729 5726 5724 5722 5720 5718